Regional Weather Roundup
Issued by NWS Charleston, SC

Current Version | Previous Version | Graphics & Text | Print | Product List | Glossary On
Versions: 1 2 3 4 5 6 7 8 9 10 11 12 13 14 15 16 17 18 19 20 21 22 23 24 25 26 27 28 29 30 31 32 33 34 35 36 37 38 39 40 41 42 43 44 45 46 47 48 49 50
000
ASUS42 KCHS 220810
RWRCHS

REGIONAL WEATHER ROUNDUP
NATIONAL WEATHER SERVICE CHARLESTON SC
400 AM EDT WED OCT 22 2014

NOTE: "FAIR" INDICATES FEW OR NO CLOUDS BELOW 12,000 FEET WITH NO
SIGNIFICANT WEATHER AND/OR OBSTRUCTIONS TO VISIBILITY.

NOT ALL STATIONS ARE QUALITY CONTROLLED BY THE NATIONAL
WEATHER SERVICE. USE DATA WITH CAUTION...ESPECIALLY
DEWPOINT OBSERVATIONS.

SCZ027-030-031-034>040-042>050-220900-
...SOUTH CAROLINA...

CITY           SKY/WX    TMP DP  RH WIND       PRES   REMARKS
N CHARLESTON   CLEAR     60  44  55 N10       29.93S
WATERFRONT PRK NOT AVBL
FORT JOHNSON   NOT AVBL
JOHNS ISLAND   SUNNY     61  48  63 N10       29.93S
PINOPOLIS      NOT AVBL
MONCKS CORNER  FAIR      61  48  63 N9        29.94S
SUMMERVILLE    FAIR      52  50  93 CALM      29.95S
BEAUFORT MCAS  CLEAR     57  50  77 N5        29.95S
BEAUFORT ARPT  FAIR      59  52  77 N6        29.94S
HILTON HEAD IS NOT AVBL
GEORGETOWN     NOT AVBL
WALTERBORO     SUNNY     54  52  94 N3        29.96S
ORANGEBURG     CLEAR     51  46  83 NE5       29.97S
BARNWELL       FAIR      52  45  76 NW3       29.98S
AIKEN          FAIR      52  45  76 N8        30.01S
MANNING        FAIR      54  37  54 N5        29.95S
KINGSTREE      NOT AVBL
COLUMBIA       CLEAR     55  41  59 N3        29.98R
SUMTER         CLEAR     52  41  66 N7        29.96R
FLORENCE       PTCLDY    56  39  53 N13       29.95S
MYRTLE BEACH   CLOUDY    59  43  55 N14G20    29.91S
N MYRTLE BEACH MOCLDY    57  44  62 N7        29.90S

$$

GAZ063-065-086>088-099>101-113>116-118-119-134-136>141-150-220900-
...GEORGIA...

CITY           SKY/WX    TMP DP  RH WIND       PRES   REMARKS
SAVANNAH ARPT  CLEAR     58  50  75 N6        29.95F
HUNTER AAF     CLEAR     59  51  75 NW7       29.93S
FORT STEWART   CLEAR     58  50  75 NW7       29.94S
STATESBORO     NOT AVBL
SYLVANIA       SUNNY     55  53  91 CALM      29.98R
CLAXTON        FAIR      52  52 100 CALM      29.97S
THOMSON        CLEAR     47  47 100 CALM      30.04S
AUGUSTA-BUSH   CLEAR     44  42  93 CALM      29.98S
AUGUSTA-DANIEL CLEAR     55  45  68 N6        29.99S
SWAINSBORO     FAIR      52  50  93 MISG      29.99S FOG
VIDALIA        CLEAR     55  50  82 N3        29.99R
ALMA           CLEAR     54  51  90 N6        29.97S
WAYCROSS       CLEAR     60  56  84 N3        29.97S
JESUP          FAIR      61  54  77 N5        29.96S
BRUNSWICK      CLEAR     59  52  77 CALM      29.96R
SAINT SIMONS   CLEAR     61  52  72 NW7       29.95R

$$

SCZ027-028-034-036>038-045-046-048>050-GAZ119-141-220900-
...LAKE AND SUPPLEMENTAL COASTAL OBSERVATIONS...

STATION/POSITION TIME  TEMP    WIND        PRES    WAVE   SWELL
                       AIR SEA DIR/SP/G            HT/PER HT/PER/DIR
                 (UTC) (F)     (DEG/KT/KT) (MB)    (FT/S) (FT/S/D)
UPR LAKE MARION  NOT AVBL
WINYAH BAY       0700   60     330/  5     1013.0S
LAKE MURRAY      0700   55     330/  2/  5 1014.9S
ACE BASIN NERRS  0700   60     350/  3     1013.0S
FORT PULASKI     0800   60     330/  8/ 10 1013.9F
SAPELO ISLAND    NOT AVBL

$$

ANZ835-935-AMZ111-154-330-350-352-354-374-450-454-472-220900-
...C-MAN AND BUOY OBSERVATIONS...

STATION/POSITION TIME  TEMP    WIND        PRES    WAVE   SWELL
                       AIR SEA DIR/SP/G            HT/PER HT/PER/DIR
                 (UTC) (F)     (DEG/KT/KT) (MB)    (FT/S) (FT/S/D)
FOLLY BEACH CMAN 0700   63     360/ 12/ 16 1013.6S
BUOY 41004       0800   70 79  360/ 19/ 23 1011.4S   3/ 5   2/ 8
BUOY 41008       0800   71 76  340/ 16/ 19 1013.3F   2/ 3   2/120/ 8
5E ST. MARYS GA  0800      77                N/A     1/13
FRYING PAN BUOY  0800   66 75  350/ 21/ 25 1011.5R   4/ 4   2/150/ 9
BUOY 41025       0800   66     340/ 16/ 17 1008.7F   3/ 4   2/ 90/ 8
CAPE LOOKOUT NC  0700   62     340/ 18/ 20 1010.2F
BUOY 41002       0708   77 79  280/ 14/ 19 1010.7F   3/ 9   2/110/ 9
BUOY 41010       0800   76 80  310/ 10/ 14 1012.5F   3/ 8   2/ 70/ 8
BUOY 41012       NOT AVBL
ST AUGUSTINE FL  0800   67     320/  6/  8 1014.2R
CAPERS NEARSHORE 0700   64      10/ 17/ 21   N/A
FRIPP NEARSHORE  NOT AVBL


$$



USA.gov is the U.S. government's official web portal to all federal, state and local government web resources and services.